Weather History for San Diego Brown, CA

Change the Weather History Date:

Saturday, February 16, 2013

  Actual Average Record
Temperature  
Mean Temperature 67 °F -  
Max Temperature 82 °F 62 °F 82 °F (2013)
Min Temperature 52 °F 44 °F 35 °F (1956)
Cooling Degree Days 2    
Growing Degree Days 17 (Base 50)    
Moisture  
Dew Point 24 °F    
Average Humidity 23    
Maximum Humidity 45    
Minimum Humidity 10    
Precipitation  
Precipitation 0.00 in - - ()
Sea Level Pressure  
Sea Level Pressure 30.06 in    
Wind  
Wind Speed 9 mph (SSE)    
Max Wind Speed 17 mph    
Max Gust Speed 22 mph    
Visibility 10 miles    
Events      
Averages and records for this station are not official NWS values.
T = Trace of Precipitation, MM = Missing Value Source: NWS Daily Summary

Daily Weather History Graph

Daily Weather History Graph

Search for Another Location

Airport:

Trip Planner

Search our weather history database for the weather conditions in past years. The results will help you decide how hot, cold, wet, or windy it might be!

Date:

Astronomy

Feb. 16, 2013 Rise Set
Actual Time 6:29 AM PST 5:34 PM PST
Civil Twilight 6:04 AM PST 5:59 PM PST
Nautical Twilight 5:35 AM PST 6:28 PM PST
Astronomical Twilight 5:07 AM PST 6:57 PM PST
Moon 10:09 AM PST (2/16) No Moon Set
Length of Visible Light 11h 55m
Length of Day
11h 05m
Waxing Crescent, 40% of the Moon is Illuminated
Feb 16
Waxing Crescent
Feb 17
First Quarter
Feb 25
Full
Mar 4
Last Quarter
Mar 11
New

Hourly Weather History & Observations

Time (PST) Temp. Dew Point Humidity Pressure Visibility Wind Dir Wind Speed Gust Speed Precip Events Conditions
12:53 AM 57.9 °F 23.0 °F 26% 30.12 in 10.0 mi SSE 4.6 mph - N/A   Clear
1:53 AM 61.0 °F 18.0 °F 19% 30.12 in 10.0 mi SSE 6.9 mph - N/A   Clear
2:53 AM 63.0 °F 17.1 °F 17% 30.11 in 10.0 mi SE 10.4 mph - N/A   Clear
3:53 AM 63.0 °F 18.0 °F 18% 30.11 in 10.0 mi SSE 6.9 mph - N/A   Clear
4:53 AM 61.0 °F 18.0 °F 19% 30.11 in 10.0 mi South 9.2 mph - N/A   Clear
5:53 AM 64.9 °F 16.0 °F 15% 30.11 in 10.0 mi SE 15.0 mph - N/A   Clear
6:53 AM 63.0 °F 19.0 °F 18% 30.12 in 10.0 mi SSE 12.7 mph - N/A   Clear
7:53 AM 68.0 °F 21.0 °F 17% 30.12 in 10.0 mi SSE 12.7 mph - N/A   Clear
8:53 AM 68.0 °F 21.9 °F 17% 30.12 in 10.0 mi SSE 13.8 mph - N/A   Clear
9:53 AM 75.0 °F 21.9 °F 14% 30.11 in 10.0 mi SE 15.0 mph 21.9 mph N/A   Clear
10:53 AM 79.0 °F 21.9 °F 12% 30.09 in 10.0 mi SE 17.3 mph 21.9 mph N/A   Clear
11:53 AM 81.0 °F 21.0 °F 11% 30.06 in 10.0 mi SE 11.5 mph 18.4 mph N/A   Clear
12:53 PM 82.0 °F 19.0 °F 10% 30.03 in 10.0 mi SE 11.5 mph - N/A   Clear
1:53 PM 75.9 °F 30.0 °F 19% 30.01 in 10.0 mi West 12.7 mph - N/A   Clear
2:53 PM 72.0 °F 27.0 °F 19% 30.00 in 10.0 mi West 13.8 mph - N/A   Clear
3:53 PM 72.0 °F 30.0 °F 21% 30.00 in 10.0 mi West 5.8 mph - N/A   Clear
4:53 PM 69.1 °F 26.1 °F 20% 29.99 in 10.0 mi West 3.5 mph - N/A   Clear
5:53 PM 64.0 °F 28.9 °F 27% 30.00 in 10.0 mi WSW 3.5 mph - N/A   Clear
6:53 PM 64.0 °F 28.9 °F 27% 30.01 in 10.0 mi WNW 3.5 mph - N/A   Clear
7:53 PM 61.0 °F 30.0 °F 31% 30.01 in 10.0 mi Calm Calm - N/A   Clear
8:53 PM 53.1 °F 30.0 °F 41% 30.01 in 10.0 mi ESE 5.8 mph - N/A   Clear
9:53 PM 52.0 °F 30.9 °F 45% 30.01 in 10.0 mi SE 8.1 mph - N/A   Clear
10:53 PM 52.0 °F 30.9 °F 45% 30.00 in 10.0 mi SSE 6.9 mph - N/A   Clear
11:53 PM 52.0 °F 28.9 °F 41% 29.99 in 10.0 mi SSE 6.9 mph - N/A   Clear